User: anonymous   Login
Location: Unspecified
(0.0000°N, 0.0000°E)
Time: 16:04:49
(UTC+00:00)
Language:

EDUSAT - Orbit

View from above orbital plane
View from above orbital plane
View from above satellite
View from above satellite

Ground track
Ground track

The orbit data is extracted from the following two-line orbital elements,

1 37788U 11044A   19078.65706115  .00000101  00000-0  25247-4 0  9995
2 37788  98.3252 218.2815 0037400 218.7794 209.2716 14.70893427407039
Epoch (UTC): 19 March 2019 15:46:10
Eccentricity: 0.0037400
inclination: 98.3252°
perigee height: 632 km
apogee height: 684 km
right ascension of ascending node: 218.2815°
argument of perigee: 218.7794°
revolutions per day: 14.70893427
mean anomaly at epoch: 209.2716°
orbit number at epoch: 40703

The dashed part of the orbit path shows where the satellite is in the earth's shadow,  

DLR